Other Public Products
Issued by NWS Charleston, SC

Home | Current Version | Previous Version | Text Only | Print | Product List | Glossary On
Versions: 1 2 3 4 5 6 7 8 9 10 11 12 13 14 15 16 17 18 19 20 21 22 23 24 25 26 27 28 29 30 31 32 33 34 35 36 37 38 39 40 41 42 43 44 45 46 47 48 49 50
000
FPUS82 KCHS 121911
OPUCHS

TEST...KCHS/KSAV Gateway Observations...TEST
National Weather Service Charleston SC
200 PM EST TUE DEC 12 2017

NOTE: "fair" indicates few or no clouds below 12,000 feet with no
significant weather and/or obstructions to visibility.

SCZ050-WAZ558-NCZ071-TXZ119-213-PAZ071-DCZ001-FLZ074-172-MI076-
NYZ176-178-MAZ016-IL014-TNZ027-NJZ106-GAZ044-MD014-122000-

...Gateway Observations for Charleston International...

CITY           SKY/WX    TMP DP  RH WIND       PRES   REMARKS
Chas Airport   MOSUNNY   61  41  47 W20G28    29.68F
Seattle        CLOUDY    42  32  67 CALM      30.48S
Charlotte      MOSUNNY   53  26  35 NW18G29   29.70F
Dallas DFW     SUNNY     54  27  35 N12       30.36F
Dallas Love    SUNNY     55  28  35 N10G17    30.37F
Philladelphia  CLOUDY    46  31  55 W8        29.48F
Wash National  CLOUDY    48  29  47 NW18G25   29.52F
Baltimore      CLOUDY    46  29  51 W17G28    29.49F
Miami          MOSUNNY   72  52  49 W10       29.99F
Detroit        PTSUNNY   21   4  47 NW20G31   29.85S WCI   6
Newark         LGT RAIN  45  36  70 W12       29.45F
Laguardia      LGT RAIN  47  35  63 W13       29.43F
J F K          CLOUDY    48  35  60 W16       29.44F
Boston Logan   CLOUDY    45  41  86 SE16      29.48F
Ft. Lauderdale MOSUNNY   70  53  54 W15G21    29.97F
Chicago O`Hare MOSUNNY   21   7  54 NW14G21   30.04F WCI   8
Chicago Midway MOSUNNY   22   8  55 NW14G22   30.06F WCI   9
Houston Bush   MOSUNNY   63  30  28 N12       30.27F
Houston Hobby  SUNNY     63  32  31 N10G20    30.26F
Nashville      MOSUNNY   43  19  38 NW16      30.06F
Atlanta        PTSUNNY   47  33  58 NW20G30   29.94R

$$

GAZ044-118-TXZ119-213-NCZ071-DCZ001-MDZ014-506-PAZ021-071-NJZ106-
NYZ176-178-MAZ106-OHZ011-021-055-MIZ076-KYZ091-ILZ014-INZ047-
MNZ060-ONZ431-122000-

...Gateway Observations for Savannah International...

CITY           SKY/WX    TMP DP  RH WIND       PRES   REMARKS
Savannah Arpt  MOSUNNY   63  39  41 W20G30    29.76F
Atlanta        PTSUNNY   47  33  58 NW20G30   29.94R
Charlotte      MOSUNNY   53  26  35 NW18G29   29.70F
Dallas DFW     SUNNY     54  27  35 N12       30.36F
Houston Bush   MOSUNNY   63  30  28 N12       30.27F
Wash National  CLOUDY    48  29  47 NW18G25   29.52F
Wash Dulles    CLOUDY    45  30  55 NW21      29.53S
Baltimore      CLOUDY    46  29  51 W17G28    29.49F
Philadelphia   CLOUDY    46  31  55 W8        29.48F
Newark         LGT RAIN  45  36  70 W12       29.45F
Laguardia      LGT RAIN  47  35  63 W13       29.43F
J F K          CLOUDY    48  35  60 W16       29.44F
Boston         CLOUDY    45  41  86 SE16      29.48F
Pittsburg      LGT SNOW  25  18  74 NW20G26   29.69R FOG     WCI  11
Akron          LGT SNOW  21   9  59 NW16G29   29.76R BLWGSNOWWCI   7
Cleveland      LGT SNOW  21  11  65 NW20G26   29.83R BLWGSNOWWCI   6
Cincinnati     PTSUNNY   27  12  53 NW17G29   29.94S WCI  14
Columbus       CLOUDY    26   6  43 NW18G25   29.87S WCI  12
Detroit        PTSUNNY   21   4  47 NW20G31   29.85S WCI   6
Chicago O`Hare MOSUNNY   21   7  54 NW14G21   30.04F WCI   8
Minneapolis    FLURRIES  16   8  71 S5        30.07F WCI   9
Indianapolis   MOSUNNY   27  10  49 W17G26    30.02F WCI  14
Toronto Canada PTSUNNY   21   9  58 NW21      29.58R WCI   6

$$




USA.gov is the U.S. government's official web portal to all federal, state and local government web resources and services.